Time_in_sec,gx,gy,gz
1314364788.46511936,0.15551960,0.00007783,-0.98783280
1314364788.51392674,0.15541559,0.00017722,-0.98784916
1314364788.56251597,0.15548116,0.00030869,-0.98783881
1314364788.61261773,0.15534116,0.00025466,-0.98786085
1314364788.66548347,0.15501571,0.00039340,-0.98791193
1314364788.71248651,0.15529289,0.00057836,-0.98786830
1314364788.76561642,0.15536873,0.00086286,-0.98785617
1314364788.82511020,0.15569017,0.00064233,-0.98780573
1314364788.86562276,0.15582430,0.00100955,-0.98778427
1314364788.91346741,0.15591848,0.00109879,-0.98776931
1314364788.96506286,0.15595852,0.00135028,-0.98776268
1314364789.01308107,0.15610243,0.00128840,-0.98774003
1314364789.06548810,0.15597250,0.00128566,-0.98776056
1314364789.11261201,0.15597493,0.00132805,-0.98776012
1314364789.16550183,0.15580867,0.00129250,-0.98778641
1314364789.21278834,0.15606707,0.00154218,-0.98774526
1314364789.26506639,0.15631885,0.00156951,-0.98770540
1314364789.31360579,0.15630971,0.00141060,-0.98770708
1314364789.36509943,0.15664220,0.00124597,-0.98765463
1314364789.41260314,0.15631360,0.00125326,-0.98770668
1314364789.46547651,0.15612902,0.00115708,-0.98773599
1314364789.51257443,0.15587165,0.00094964,-0.98777686
1314364789.56549835,0.15571057,0.00084033,-0.98780236
1314364789.61288524,0.15567534,0.00084373,-0.98780792
1314364789.66554642,0.15562311,0.00085633,-0.98781613
1314364789.71361470,0.15548595,0.00085590,-0.98783773
1314364789.76261950,0.15542344,0.00064717,-0.98784773
1314364789.81345010,0.15545878,0.00076591,-0.98784208
1314364789.86547565,0.15541340,0.00079665,-0.98784920
1314364789.91299939,0.15531698,0.00101557,-0.98786416
1314364789.96550965,0.15524617,0.00121244,-0.98787507
1314364790.01322389,0.15526943,0.00125791,-0.98787136
1314364790.06506133,0.15534055,0.00134638,-0.98786006
1314364790.11345673,0.15506548,0.00137211,-0.98790324
1314364790.16467047,0.15499434,0.00139969,-0.98791437
1314364790.21304560,0.15488284,0.00146499,-0.98793176
1314364790.26550412,0.15492412,0.00156941,-0.98792513
1314364790.31307697,0.15508415,0.00176927,-0.98789968
1314364790.36549425,0.15509864,0.00185284,-0.98789725
1314364790.41254354,0.15501330,0.00191744,-0.98791052
1314364790.46467924,0.15514232,0.00192846,-0.98789025
1314364790.51254725,0.15504422,0.00178103,-0.98790593
1314364790.56549168,0.15503607,0.00183563,-0.98790710
1314364790.61261177,0.15505763,0.00186181,-0.98790367
1314364790.66545749,0.15504741,0.00199513,-0.98790502
1314364790.71362329,0.15498566,0.00208270,-0.98791452
1314364790.76550317,0.15508761,0.00217699,-0.98789832
1314364790.81349540,0.15496059,0.00218408,-0.98791824
1314364790.86560917,0.15483868,0.00203629,-0.98793767
1314364790.91348743,0.15474111,0.00219788,-0.98795261
1314364790.96502733,0.15465499,0.00214988,-0.98796620
1314364791.01359797,0.15456866,0.00227385,-0.98797943
1314364791.06546760,0.15417021,0.00232027,-0.98804158
1314364791.11259031,0.15407330,0.00229744,-0.98805675
1314364791.16568446,0.15406097,0.00244498,-0.98805832
1314364791.21326423,0.15414400,0.00225545,-0.98804582
1314364791.26561451,0.15409455,0.00194043,-0.98805420
1314364791.31355262,0.15413402,0.00194321,-0.98804804
1314364791.36466408,0.15411483,0.00180941,-0.98805129
1314364791.41261530,0.15388015,0.00188352,-0.98808772
1314364791.46548486,0.15392825,0.00173118,-0.98808051
1314364791.51348042,0.15379163,0.00164819,-0.98810193
1314364791.56546783,0.15376765,0.00159169,-0.98810575
1314364791.61363935,0.15376286,0.00130194,-0.98810692
1314364791.66462922,0.15386514,0.00124544,-0.98809107
1314364791.71346474,0.15406091,0.00113979,-0.98806070
1314364791.76501155,0.15412366,0.00096038,-0.98805110
1314364791.81300306,0.15419693,0.00106642,-0.98803956
1314364791.86332726,0.15399897,0.00098607,-0.98807052
1314364791.91339111,0.15395284,0.00130734,-0.98807733
1314364791.96949196,0.15394325,0.00119553,-0.98807897
1314364792.01350331,0.15401497,0.00140614,-0.98806751
1314364792.06504393,0.15406568,0.00152641,-0.98805943
1314364792.11347628,0.15391181,0.00177983,-0.98808299
1314364792.16562819,0.15402150,0.00172934,-0.98806598
1314364792.21253991,0.15398966,0.00154297,-0.98807126
1314364792.26550841,0.15392571,0.00147697,-0.98808132
1314364792.31349277,0.15391905,0.00143187,-0.98808242
1314364792.36549544,0.15374378,0.00158729,-0.98810947
1314364792.41318679,0.15373081,0.00183858,-0.98811106
1314364792.46562505,0.15370448,0.00184897,-0.98811513
1314364792.51345301,0.15357536,0.00207466,-0.98813476
1314364792.56497717,0.15358302,0.00202984,-0.98813366
1314364792.61261749,0.15375117,0.00220230,-0.98810714
1314364792.66276097,0.15358165,0.00225858,-0.98813338
1314364792.71294570,0.15361754,0.00233244,-0.98812763
1314364792.76189828,0.15353093,0.00244695,-0.98814081
1314364792.81279135,0.15346067,0.00249947,-0.98815160
1314364792.86546850,0.15353431,0.00271246,-0.98813959
1314364792.91361165,0.15371848,0.00265102,-0.98811113
1314364792.96487427,0.15383251,0.00281793,-0.98809292
1314364793.01348257,0.15373250,0.00255226,-0.98810921
1314364793.06800914,0.15396446,0.00240031,-0.98807347
1314364793.11250496,0.15387709,0.00252552,-0.98808677
1314364793.16949129,0.15391955,0.00230466,-0.98808070
1314364793.22464061,0.15384581,0.00205406,-0.98809273
1314364793.26561785,0.15383316,0.00218211,-0.98809443
1314364793.31349134,0.15392429,0.00227989,-0.98808001
1314364793.36561394,0.15394477,0.00228682,-0.98807681
1314364793.41260147,0.15399277,0.00215073,-0.98806963
1314364793.46547437,0.15404057,0.00215696,-0.98806217
1314364793.51322436,0.15407109,0.00241067,-0.98805682
1314364793.56583524,0.15412538,0.00240750,-0.98804836
1314364793.62460923,0.15403196,0.00244087,-0.98806285
1314364793.66493940,0.15397445,0.00254254,-0.98807156
1314364793.71348953,0.15403221,0.00252059,-0.98806261
1314364793.76468015,0.15410158,0.00252478,-0.98805179
1314364793.81348014,0.15396267,0.00241887,-0.98807370
1314364793.86551905,0.15405225,0.00236940,-0.98805986
1314364793.91354728,0.15396666,0.00227662,-0.98807342
1314364793.96545076,0.15408494,0.00246073,-0.98805454
1314364794.01352000,0.15406157,0.00222455,-0.98805875
1314364794.06560278,0.15433845,0.00267284,-0.98801442
1314364794.11358690,0.15428699,0.00263763,-0.98802255
1314364794.16561341,0.15458143,0.00268061,-0.98797641
1314364794.21348882,0.15452326,0.00269359,-0.98798548
1314364794.26947570,0.15450657,0.00247234,-0.98798867
1314364794.31250691,0.15462118,0.00249297,-0.98797069
1314364794.36550164,0.15486998,0.00239887,-0.98793195
1314364794.42449355,0.15502981,0.00245770,-0.98790674
1314364794.46560311,0.15518359,0.00267946,-0.98788201
1314364794.51368022,0.15526492,0.00258870,-0.98786948
1314364794.56561923,0.15526265,0.00264758,-0.98786968
1314364794.61260939,0.15539900,0.00253996,-0.98784852
1314364794.66792035,0.15522422,0.00258688,-0.98787588
1314364794.71252012,0.15499967,0.00256427,-0.98791119
1314364794.76568985,0.15490698,0.00238740,-0.98792617
1314364794.81259871,0.15499914,0.00250692,-0.98791142
1314364794.86746573,0.15467287,0.00239969,-0.98796283
1314364794.91343522,0.15444406,0.00236208,-0.98799871
1314364794.96546745,0.15453592,0.00232023,-0.98798445
1314364795.01339245,0.15448450,0.00240125,-0.98799229
1314364795.06295109,0.15454759,0.00259044,-0.98798195
1314364795.11249256,0.15449278,0.00227006,-0.98799131
1314364795.16550684,0.15445914,0.00251111,-0.98799599
1314364795.21248722,0.15451420,0.00239137,-0.98798767
1314364795.26560545,0.15462059,0.00218820,-0.98797150
1314364795.31345034,0.15457237,0.00222697,-0.98797896
1314364795.36484218,0.15447755,0.00240018,-0.98799338
1314364795.41260767,0.15433686,0.00262612,-0.98801480
1314364795.47156811,0.15437053,0.00279200,-0.98800908
1314364795.51249599,0.15439396,0.00296808,-0.98800491
1314364795.56447411,0.15437087,0.00316723,-0.98800790
1314364795.61247134,0.15443596,0.00321376,-0.98799757
1314364795.66488338,0.15442845,0.00335240,-0.98799829
1314364795.71347260,0.15447761,0.00316688,-0.98799121
1314364795.76473999,0.15449729,0.00329594,-0.98798771
1314364795.81266570,0.15453349,0.00337341,-0.98798179
1314364795.86545205,0.15457894,0.00326740,-0.98797504
1314364795.91350865,0.15477362,0.00342272,-0.98794403
1314364795.96553755,0.15484980,0.00320652,-0.98793282
1314364796.01352787,0.15504839,0.00331635,-0.98790131
1314364796.06561947,0.15502035,0.00322805,-0.98790600
1314364796.11344266,0.15494198,0.00309049,-0.98791874
1314364796.16485381,0.15499631,0.00321415,-0.98790982
1314364796.21317267,0.15492290,0.00311011,-0.98792167
1314364796.26554918,0.15470972,0.00313142,-0.98795501
1314364796.31351900,0.15476927,0.00277202,-0.98794675
1314364796.36549664,0.15468683,0.00309537,-0.98795870
1314364796.41261053,0.15479591,0.00294032,-0.98794209
1314364796.46485233,0.15467436,0.00318820,-0.98796036
1314364796.51344562,0.15461487,0.00319097,-0.98796967
1314364796.56485558,0.15478855,0.00323224,-0.98794233
1314364796.61277246,0.15479155,0.00349124,-0.98794098
1314364796.66550255,0.15497895,0.00352643,-0.98791148
1314364796.71309352,0.15478766,0.00340900,-0.98794188
1314364796.76546764,0.15455340,0.00341090,-0.98797855
1314364796.81255102,0.15463358,0.00350982,-0.98796566
1314364796.86453104,0.15445051,0.00344684,-0.98799451
1314364796.91349673,0.15453542,0.00353616,-0.98798092
1314364796.96465516,0.15454511,0.00342928,-0.98797978
1314364797.01351261,0.15484847,0.00361116,-0.98793163
1314364797.06549740,0.15493843,0.00362337,-0.98791748
1314364797.11327195,0.15473902,0.00372839,-0.98794835
1314364797.16549897,0.15482221,0.00368700,-0.98793547
1314364797.21321654,0.15516426,0.00376857,-0.98788150
1314364797.26475549,0.15518438,0.00372331,-0.98787851
1314364797.31269097,0.15515045,0.00379020,-0.98788358
1314364797.36227012,0.15508231,0.00407239,-0.98789316
1314364797.41246486,0.15500298,0.00410173,-0.98790549
1314364797.46547747,0.15500747,0.00429065,-0.98790398
1314364797.51253438,0.15470003,0.00411046,-0.98795294
1314364797.56448388,0.15461681,0.00392763,-0.98796671
1314364797.61254525,0.15455750,0.00398585,-0.98797575
1314364797.66482544,0.15455779,0.00389567,-0.98797607
1314364797.71358013,0.15477387,0.00398586,-0.98794188
1314364797.76549268,0.15481111,0.00410480,-0.98793556
1314364797.81251097,0.15464590,0.00435412,-0.98796037
1314364797.86546874,0.15447902,0.00460820,-0.98798532
1314364797.91338205,0.15475922,0.00452568,-0.98794185
1314364797.96549463,0.15466347,0.00460638,-0.98795647
1314364798.01349378,0.15486218,0.00476615,-0.98792459
1314364798.06465387,0.15477914,0.00504182,-0.98793623
1314364798.11347723,0.15483181,0.00533934,-0.98792642
1314364798.16452456,0.15508711,0.00509072,-0.98788768
1314364798.21266150,0.15503896,0.00492588,-0.98789608
1314364798.26546144,0.15518899,0.00479312,-0.98787317
1314364798.31356621,0.15518173,0.00480219,-0.98787427
1314364798.36551070,0.15521180,0.00479500,-0.98786958
1314364798.41273403,0.15502023,0.00477244,-0.98789977
1314364798.46470571,0.15494531,0.00480675,-0.98791136
1314364798.51343417,0.15511993,0.00501310,-0.98788293
1314364798.56467414,0.15519249,0.00515863,-0.98787078
1314364798.61250377,0.15519279,0.00484127,-0.98787234
1314364798.66180110,0.15495251,0.00503371,-0.98790910
1314364798.71247697,0.15491149,0.00521976,-0.98791456
1314364798.76546574,0.15507344,0.00542452,-0.98788805
1314364798.82454872,0.15510106,0.00553329,-0.98788311
1314364798.86164188,0.15492440,0.00542606,-0.98791143
1314364798.91345334,0.15528273,0.00531419,-0.98785578
1314364798.96469450,0.15536474,0.00510684,-0.98784398
1314364799.01264238,0.15520840,0.00546645,-0.98786663
1314364799.06161594,0.15513695,0.00576571,-0.98787615
1314364799.11270356,0.15503118,0.00565396,-0.98789340
1314364799.16550994,0.15510289,0.00560648,-0.98788241
1314364799.22466993,0.15494401,0.00567606,-0.98790695
1314364799.26553798,0.15498033,0.00559235,-0.98790173
1314364799.31347609,0.15479749,0.00555004,-0.98793063
1314364799.36163640,0.15474962,0.00558594,-0.98793793
1314364799.41263461,0.15446612,0.00568106,-0.98798175
1314364799.46360183,0.15440383,0.00549119,-0.98799256
1314364799.51246452,0.15442949,0.00560609,-0.98798791
1314364799.56551766,0.15413668,0.00567436,-0.98803324
1314364799.61259103,0.15387414,0.00553857,-0.98807493
1314364799.66459608,0.15413873,0.00573544,-0.98803257
1314364799.71344376,0.15423595,0.00548084,-0.98801884
1314364799.76460004,0.15411702,0.00564300,-0.98803649
1314364799.81270885,0.15422831,0.00578996,-0.98801827
1314364799.86182785,0.15425840,0.00603237,-0.98801212
1314364799.91252542,0.15414409,0.00610463,-0.98802952
1314364799.96552062,0.15426081,0.00615886,-0.98801097
1314364800.01347351,0.15425629,0.00635429,-0.98801043
1314364800.06451631,0.15416462,0.00647275,-0.98802397
1314364800.11383772,0.15424379,0.00647297,-0.98801162
1314364800.16460204,0.15419578,0.00634702,-0.98801993
1314364800.21260643,0.15399485,0.00639593,-0.98805095
1314364800.26550293,0.15402280,0.00639986,-0.98804657
1314364800.31278992,0.15407169,0.00631232,-0.98803951
1314364800.36549377,0.15413646,0.00621098,-0.98803005
1314364800.41348386,0.15406861,0.00629836,-0.98804008
1314364800.46451521,0.15414231,0.00680162,-0.98802525
1314364800.51360011,0.15424253,0.00690466,-0.98800889
1314364800.56456637,0.15410856,0.00700118,-0.98802912
1314364800.61360979,0.15429400,0.00705763,-0.98799977
1314364800.66743326,0.15428355,0.00731521,-0.98799953
1314364800.71368074,0.15406058,0.00721159,-0.98803509
1314364800.76166892,0.15405858,0.00703987,-0.98803664
1314364800.82155991,0.15423649,0.00705797,-0.98800875
1314364800.86157036,0.15431660,0.00718649,-0.98799531
1314364800.91358399,0.15450945,0.00729848,-0.98796435
1314364800.96464324,0.15466780,0.00727030,-0.98793978
1314364801.01257014,0.15474463,0.00725442,-0.98792787
1314364801.06193185,0.15455263,0.00698678,-0.98795985
1314364801.11257195,0.15460046,0.00687264,-0.98795317
1314364801.16549683,0.15469961,0.00666188,-0.98793909
1314364801.21293330,0.15465083,0.00657075,-0.98794734
1314364801.26463103,0.15470003,0.00661545,-0.98793934
1314364801.31362677,0.15456721,0.00658705,-0.98796032
1314364801.36153245,0.15476769,0.00673675,-0.98792792
1314364801.41195321,0.15464367,0.00666717,-0.98794781
1314364801.46548724,0.15456909,0.00660680,-0.98795989
1314364801.51248932,0.15467042,0.00653948,-0.98794448
1314364801.56555343,0.15478678,0.00650604,-0.98792648
1314364801.61416149,0.15445414,0.00677244,-0.98797675
1314364801.66286325,0.15466196,0.00691524,-0.98794325
1314364801.71356654,0.15453713,0.00685617,-0.98796319
1314364801.76458979,0.15467198,0.00665599,-0.98794346
1314364801.81270766,0.15461529,0.00682918,-0.98795115
1314364801.86155844,0.15463064,0.00676812,-0.98794917
1314364801.91273308,0.15460293,0.00668629,-0.98795406
1314364801.96551800,0.15454752,0.00666582,-0.98796287
1314364802.01261973,0.15461956,0.00635195,-0.98795366
1314364802.06456232,0.15460931,0.00656915,-0.98795385
1314364802.11350632,0.15468963,0.00623546,-0.98794344
1314364802.16476560,0.15470650,0.00642981,-0.98793955
1314364802.21269417,0.15482183,0.00627082,-0.98792251
1314364802.26151657,0.15476314,0.00598253,-0.98793349
1314364802.31260157,0.15487356,0.00608540,-0.98791556
1314364802.37364531,0.15509222,0.00607838,-0.98788130
1314364802.41250134,0.15490699,0.00602329,-0.98791070
1314364802.46859336,0.15491434,0.00612497,-0.98790892
1314364802.51400256,0.15501717,0.00601792,-0.98789345
1314364802.57352424,0.15474704,0.00599301,-0.98793595
1314364802.61410284,0.15478618,0.00596296,-0.98793000
1314364802.66151547,0.15481269,0.00609060,-0.98792507
1314364802.71351457,0.15483776,0.00613778,-0.98792085
1314364802.76552868,0.15492520,0.00609231,-0.98790742
1314364802.81250763,0.15471738,0.00611887,-0.98793982
1314364802.86451411,0.15452269,0.00607516,-0.98797056
1314364802.91351366,0.15459850,0.00616645,-0.98795814
1314364802.96164131,0.15463620,0.00605715,-0.98795291
1314364803.01262641,0.15443669,0.00606705,-0.98798406
1314364803.06227684,0.15445160,0.00630874,-0.98798021
1314364803.11258483,0.15462119,0.00620455,-0.98795435
1314364803.16553760,0.15435468,0.00647220,-0.98799430
1314364803.21259069,0.15425050,0.00669315,-0.98800910
1314364803.26457787,0.15398769,0.00683652,-0.98804911
1314364803.31346488,0.15405683,0.00695115,-0.98803754
1314364803.36159086,0.15417576,0.00677622,-0.98802020
1314364803.41252160,0.15399986,0.00662414,-0.98804867
1314364803.46163344,0.15413266,0.00640304,-0.98802941
1314364803.51259327,0.15406115,0.00655005,-0.98803960
1314364803.56551886,0.15403740,0.00649345,-0.98804368
1314364803.61293459,0.15403943,0.00674565,-0.98804167
1314364803.66856217,0.15400421,0.00659204,-0.98804820
1314364803.71492147,0.15393120,0.00650066,-0.98806018
1314364803.76453209,0.15416167,0.00683679,-0.98802198
1314364803.81260753,0.15416098,0.00677732,-0.98802250
1314364803.86146951,0.15429424,0.00663724,-0.98800265
1314364803.91252470,0.15421164,0.00675131,-0.98801477
1314364803.96148348,0.15445073,0.00687731,-0.98797656
1314364804.01350760,0.15436943,0.00707780,-0.98798785
1314364804.06159139,0.15428246,0.00698994,-0.98800206
1314364804.11360312,0.15447858,0.00706412,-0.98797088
1314364804.16460085,0.15441056,0.00725753,-0.98798011
1314364804.21148205,0.15460749,0.00737003,-0.98794848
1314364804.26453710,0.15477583,0.00732231,-0.98792248
1314364804.31350851,0.15467000,0.00733835,-0.98793894
1314364804.36497426,0.15458330,0.00725947,-0.98795309
1314364804.41643953,0.15456493,0.00693122,-0.98795832
1314364804.46451211,0.15440287,0.00689655,-0.98798390
1314364804.51344681,0.15419568,0.00692093,-0.98801609
1314364804.56453586,0.15384030,0.00680952,-0.98807226
1314364804.61258125,0.15385107,0.00698882,-0.98806933
1314364804.66147566,0.15405011,0.00690031,-0.98803894
1314364804.71310210,0.15404949,0.00690892,-0.98803898
1314364804.76567721,0.15394201,0.00702776,-0.98805489
1314364804.81324506,0.15399795,0.00700352,-0.98804635
1314364804.86545444,0.15403634,0.00705329,-0.98804001
1314364804.91346526,0.15387817,0.00690398,-0.98806571
1314364804.96146798,0.15372712,0.00702871,-0.98808834
1314364805.01250172,0.15371006,0.00707589,-0.98809066
1314364805.06551361,0.15359580,0.00698293,-0.98810909
1314364805.11213565,0.15342765,0.00672139,-0.98813702
1314364805.16148186,0.15326492,0.00665175,-0.98816275
1314364805.21247268,0.15339210,0.00681693,-0.98814189
1314364805.26298022,0.15346021,0.00684760,-0.98813110
1314364805.31347609,0.15335132,0.00687794,-0.98814780
1314364805.36155629,0.15347891,0.00676169,-0.98812879
1314364805.41212368,0.15348504,0.00672180,-0.98812811
1314364805.46146560,0.15338518,0.00673118,-0.98814355
1314364805.51268578,0.15318374,0.00681065,-0.98817425
1314364805.56550908,0.15311021,0.00661902,-0.98818695
1314364805.61278272,0.15321138,0.00652458,-0.98817190
1314364805.66454601,0.15307404,0.00658452,-0.98819279
1314364805.71345425,0.15296197,0.00649795,-0.98821071
1314364805.76449990,0.15281713,0.00666637,-0.98823200
1314364805.81554294,0.15313224,0.00677508,-0.98818248
1314364805.86294985,0.15295863,0.00647220,-0.98821140
1314364805.91253448,0.15276984,0.00664768,-0.98823944
1314364805.96550202,0.15277350,0.00660301,-0.98823917
1314364806.01273108,0.15276577,0.00644909,-0.98824138
1314364806.06223893,0.15269467,0.00643641,-0.98825245
1314364806.11346579,0.15286334,0.00644918,-0.98822629
1314364806.16148496,0.15265535,0.00631939,-0.98825928
1314364806.21351862,0.15272222,0.00637955,-0.98824856
1314364806.26742339,0.15265753,0.00616156,-0.98825994
1314364806.31339574,0.15259551,0.00608914,-0.98826997
